{"data":{"norad_id":62283,"intl_designator":"2024-237S","name":"STARLINK-33547","alt_names":[],"object_type":"PAYLOAD","status":"ACTIVE","operator":null,"country":"US","launch_date":"2024-12-08","launch_site_code":"AFETR","launch_vehicle":null,"mission":null,"orbit_class":"UNKNOWN","rcs_meters":null,"size_class":null,"mass_kg":null,"dimensions":null,"purposes":["comms"],"wikipedia_slug":null,"has_3d_model":false,"image_url":null,"decayed_at":null,"tle_current":{"epoch":"2026-05-24T23:12:23.274720Z","epoch_age_seconds":74603,"freshness":"FRESH","line1":"1 62283U 24237S   26144.96693605  .00012660  00000+0  46866-3 0  9997","line2":"2 62283  43.0007 134.6779 0001367 302.0851  57.9868 15.27590219 82981","mean_motion":15.27590219,"eccentricity":0.0001367,"inclination_deg":43.0007,"raan_deg":134.6779,"arg_perigee_deg":302.0851,"mean_anomaly_deg":57.9868,"bstar":0.00046866,"rev_number":8298,"period_min":94.266118104806,"perigee_km":482.08057689155,"apogee_km":483.95641680439,"semimajor_km":6861.155496848,"source":"CELESTRAK","updated_at":"2026-05-25T13:38:19.645300Z"}}}